period_start,C,m1,H,J0,J1,J2,J3,J4,J5,JA,JB,JC,JD,JJ,JK,JN,#
2016-01-06 00:04:51,0.05,0.43,0.00,20.22,23.87,27.57,14.58,50.65,1007.89,2047.34,3348.32,3064.03,3408.70,600.02,596.40,12.03,0000 0000 0000 0000 000000
2016-01-06 00:09:53,0.05,0.43,0.00,20.21,23.85,27.52,14.56,50.57,1007.86,2047.54,3347.39,3063.92,3408.01,600.12,596.66,12.08,0000 0000 0000 0000 000000
2016-01-06 00:14:54,0.06,0.44,0.00,20.21,23.83,27.59,14.56,50.63,1007.83,2047.83,3346.57,3063.17,3407.28,599.77,596.28,12.13,0000 0000 0000 0000 000000
2016-01-06 00:19:55,0.02,0.44,0.00,20.22,23.82,27.56,14.59,50.59,1007.83,2047.94,3345.69,3062.85,3406.72,599.87,596.35,12.18,0000 0000 0000 0000 000000
2016-01-06 00:24:56,0.05,0.44,0.00,20.22,23.80,27.56,14.52,50.65,1007.74,2047.96,3344.66,3062.05,3405.85,599.79,596.17,12.23,0000 0000 0000 0000 000000
2016-01-06 00:29:57,0.02,0.45,0.00,20.20,23.80,27.56,14.55,50.65,1007.44,2047.98,3343.83,3061.95,3405.08,600.06,596.38,12.28,0000 0000 0000 0000 000000
2016-01-06 00:34:59,0.04,0.45,0.00,20.19,23.78,27.56,14.55,50.70,1007.37,2047.99,3342.98,3061.28,3404.67,599.85,596.12,12.33,0000 0000 0000 0000 000000
2016-01-06 00:40:00,0.02,0.45,0.00,20.19,23.77,27.53,14.53,50.60,1007.46,2047.99,3342.15,3061.00,3404.02,599.76,596.10,12.38,0000 0000 0000 0000 000000
2016-01-06 00:45:01,0.04,0.45,0.00,20.19,23.76,27.56,14.63,50.69,1007.78,2047.99,3341.40,3060.71,3403.48,600.03,596.59,12.43,0000 0000 0000 0000 000000
2016-01-06 00:50:02,0.02,0.45,0.00,20.17,23.75,27.50,14.59,50.62,1007.74,2048.00,3340.62,3060.04,3402.95,600.29,596.78,12.48,0000 0000 0000 0000 000000
2016-01-06 00:55:04,0.02,0.45,0.00,20.15,23.74,27.53,14.64,50.79,1007.55,2048.00,3339.75,3059.94,3402.15,600.14,596.59,12.53,0000 0000 0000 0000 000000
2016-01-06 01:00:05,0.04,0.46,0.00,20.15,23.72,27.55,14.66,50.75,1007.38,2048.03,3338.89,3059.30,3401.67,600.20,596.54,12.58,0000 0000 0000 0000 000000
2016-01-06 01:05:06,0.02,0.46,0.00,20.14,23.72,27.53,14.60,50.66,1007.35,2048.02,3337.99,3058.99,3401.00,600.21,596.56,12.63,0000 0000 0000 0000 000000
2016-01-06 01:10:08,0.05,0.46,0.00,20.12,23.70,27.46,14.60,50.82,1007.34,2048.05,3337.07,3058.46,3400.25,599.92,596.31,12.68,0000 0000 0000 0000 000000
2016-01-06 01:15:09,0.04,0.46,0.00,20.12,23.70,27.50,14.66,50.82,1007.34,2048.23,3336.20,3058.01,3399.84,600.09,596.47,12.73,0000 0000 0000 0000 000000
2016-01-06 01:20:11,0.05,0.46,0.00,20.11,23.68,27.45,14.58,50.85,1007.34,2048.30,3335.21,3057.63,3399.05,599.62,596.09,12.78,0000 0000 0000 0000 000000
2016-01-06 01:25:12,0.05,0.47,0.00,20.11,23.67,27.46,14.65,50.83,1007.31,2048.52,3334.20,3057.02,3398.23,600.09,596.53,12.83,0000 0000 0000 0000 000000
2016-01-06 01:30:14,0.07,0.47,0.00,20.10,23.66,27.43,14.54,50.82,1007.26,2048.81,3333.24,3056.54,3397.57,599.81,596.19,12.88,0000 0000 0000 0000 000000
2016-01-06 01:35:15,0.03,0.47,0.00,20.10,23.65,27.46,14.57,50.76,1007.29,2048.91,3332.36,3056.01,3396.91,599.86,596.27,12.93,0000 0000 0000 0000 000000
2016-01-06 01:40:15,0.04,0.48,0.00,20.08,23.63,27.47,14.55,50.82,1007.24,2048.95,3331.36,3055.67,3396.09,599.92,596.19,12.98,0000 0000 0000 0000 000000
2016-01-06 01:45:17,0.04,0.48,0.00,20.05,23.62,27.45,14.56,50.77,1006.96,2048.95,3330.46,3055.04,3395.52,600.05,596.38,13.03,0000 0000 0000 0000 000000
2016-01-06 01:50:18,0.04,0.48,0.00,20.06,23.61,27.41,14.65,50.80,1007.02,2048.97,3329.39,3054.55,3394.71,600.47,596.78,13.08,0000 0000 0000 0000 000000
2016-01-06 01:55:19,0.03,0.48,0.00,20.05,23.60,27.40,14.59,50.83,1007.00,2048.98,3328.33,3054.00,3393.89,599.80,596.10,13.13,0000 0000 0000 0000 000000
2016-01-06 02:00:21,0.05,0.48,0.00,20.03,23.59,27.39,14.57,50.83,1007.24,2048.99,3327.25,3053.28,3393.04,599.84,596.51,13.18,0000 0000 0000 0000 000000
2016-01-06 02:05:22,0.03,0.49,0.00,20.00,23.57,27.41,14.64,50.89,1007.32,2048.99,3326.28,3052.96,3392.19,600.05,596.75,13.23,0000 0000 0000 0000 000000
2016-01-06 02:10:23,0.05,0.49,0.00,20.00,23.57,27.40,14.70,50.92,1007.31,2048.99,3325.06,3052.21,3391.40,600.36,596.97,13.28,0000 0000 0000 0000 000000
2016-01-06 02:15:25,0.05,0.49,0.00,20.01,23.55,27.40,14.65,50.88,1007.31,2048.99,3323.80,3051.67,3390.66,600.01,596.61,13.33,0000 0000 0000 0000 000000
2016-01-06 02:20:26,0.03,0.49,0.00,20.00,23.55,27.37,14.58,50.92,1007.33,2048.99,3322.74,3051.02,3389.86,600.10,596.76,13.38,0000 0000 0000 0000 000000
2016-01-06 02:25:27,0.05,0.50,0.00,19.99,23.53,27.39,14.57,50.80,1007.34,2049.00,3321.63,3050.50,3389.02,600.17,596.77,13.43,0000 0000 0000 0000 000000
2016-01-06 02:30:29,0.04,0.50,0.00,19.98,23.52,27.34,14.60,50.83,1007.34,2049.02,3320.53,3050.01,3388.13,599.97,596.65,13.48,0000 0000 0000 0000 000000
2016-01-06 02:35:30,0.06,0.50,0.00,19.97,23.51,27.34,14.58,50.93,1007.34,2049.02,3319.38,3049.31,3387.26,599.98,596.62,13.53,0000 0000 0000 0000 000000
2016-01-06 02:40:31,0.04,0.50,0.00,19.96,23.50,27.28,14.58,50.77,1007.34,2049.08,3318.22,3048.91,3386.43,599.98,596.66,13.58,0000 0000 0000 0000 000000
2016-01-06 02:45:33,0.06,0.51,0.00,19.97,23.50,27.33,14.59,51.04,1007.34,2049.08,3316.71,3048.08,3385.36,599.93,596.66,13.63,0000 0000 0000 0000 000000
2016-01-06 02:50:34,0.05,0.51,0.00,19.96,23.48,27.30,14.67,50.92,1007.34,2049.09,3315.52,3047.45,3384.52,600.29,597.02,13.68,0000 0000 0000 0000 000000
2016-01-06 02:55:35,0.04,0.51,0.00,19.97,23.47,27.28,14.58,50.82,1007.34,2049.09,3314.18,3046.85,3383.48,600.04,596.67,13.73,0000 0000 0000 0000 000000
2016-01-06 03:00:36,0.06,0.52,0.00,19.95,23.47,27.29,14.64,50.83,1007.34,2049.14,3312.84,3046.05,3382.49,600.03,596.79,13.78,0000 0000 0000 0000 000000
2016-01-06 03:05:38,0.07,0.52,0.00,19.95,23.45,27.28,14.62,50.92,1007.34,2049.33,3311.58,3045.34,3381.50,599.99,596.71,13.84,0000 0000 0000 0000 000000
2016-01-06 03:10:39,0.06,0.52,0.00,19.94,23.45,27.28,14.64,50.94,1007.35,2049.43,3310.14,3044.74,3380.42,599.68,596.45,13.89,0000 0000 0000 0000 000000
2016-01-06 03:15:41,0.07,0.53,0.00,19.96,23.45,27.31,14.56,50.85,1007.36,2049.77,3308.98,3044.03,3379.62,599.88,596.66,13.94,0000 0000 0000 0000 000000
2016-01-06 03:20:42,0.07,0.53,0.00,19.93,23.43,27.27,14.65,51.02,1007.34,2049.85,3307.62,3043.23,3378.50,600.13,596.95,13.99,0000 0000 0000 0000 000000
2016-01-06 03:25:43,0.05,0.53,0.00,19.93,23.42,27.27,14.60,50.96,1007.41,2049.81,3306.38,3042.69,3377.54,600.07,596.90,14.04,0000 0000 0000 0000 000000
2016-01-06 03:30:45,0.04,0.53,0.00,19.91,23.42,27.28,14.62,50.89,1007.72,2049.90,3305.13,3042.02,3376.66,600.06,597.10,14.09,0000 0000 0000 0000 000000
2016-01-06 03:35:46,0.06,0.54,0.00,19.90,23.42,27.25,14.63,51.02,1007.81,2049.95,3303.95,3041.39,3375.80,599.84,597.07,14.14,0000 0000 0000 0000 000000
2016-01-06 03:40:47,0.04,0.54,0.00,19.90,23.40,27.25,14.61,50.98,1007.83,2049.95,3302.70,3040.87,3374.83,599.90,596.93,14.19,0000 0000 0000 0000 000000
2016-01-06 03:45:49,0.05,0.54,0.00,19.91,23.40,27.24,14.65,51.15,1007.83,2049.95,3301.51,3040.08,3373.98,600.23,597.32,14.24,0000 0000 0000 0000 000000
2016-01-06 03:50:50,0.03,0.55,0.00,19.91,23.39,27.22,14.67,51.15,1007.78,2049.97,3300.28,3039.92,3373.11,600.23,597.25,14.29,0000 0000 0000 0000 000000
2016-01-06 03:55:51,0.05,0.55,0.00,19.89,23.38,27.18,14.62,51.09,1007.51,2049.98,3299.02,3039.09,3372.24,600.13,597.00,14.34,0000 0000 0000 0000 000000
2016-01-06 04:00:52,0.06,0.55,0.00,19.89,23.37,27.25,14.66,51.17,1007.37,2049.98,3297.69,3038.48,3371.34,599.77,596.66,14.39,0000 0000 0000 0000 000000
2016-01-06 04:05:54,0.05,0.55,0.00,19.88,23.37,27.28,14.63,51.10,1007.67,2049.98,3296.37,3037.72,3370.14,599.86,596.88,14.44,0000 0000 0000 0000 000000
2016-01-06 04:10:55,0.04,0.56,0.00,19.87,23.37,27.23,14.63,51.07,1007.83,2049.99,3295.16,3037.03,3369.29,599.66,596.84,14.49,0000 0000 0000 0000 000000
2016-01-06 04:15:57,0.05,0.56,0.00,19.89,23.37,27.19,14.64,50.96,1007.84,2049.99,3293.81,3036.63,3368.33,599.97,597.11,14.54,0000 0000 0000 0000 000000
2016-01-06 04:20:58,0.04,0.56,0.00,19.89,23.36,27.13,14.63,51.13,1007.92,2049.99,3292.49,3036.01,3367.36,600.06,597.27,14.59,0000 0000 0000 0000 000000
2016-01-06 04:26:00,0.06,0.56,0.00,19.89,23.35,27.15,14.68,51.12,1007.86,2049.98,3290.92,3035.34,3366.33,600.35,597.41,14.64,0000 0000 0000 0000 000000
2016-01-06 04:31:01,0.04,0.57,0.00,19.88,23.35,27.16,14.63,51.08,1007.94,2049.98,3289.39,3034.98,3365.33,600.14,597.31,14.69,0000 0000 0000 0000 000000
2016-01-06 04:36:02,0.05,0.57,0.00,19.87,23.33,27.18,14.59,50.98,1008.27,2049.99,3287.99,3034.56,3364.36,600.02,597.65,14.74,0000 0000 0000 0000 000000
2016-01-06 04:41:03,0.05,0.57,0.00,19.86,23.32,27.14,14.68,50.97,1008.26,2049.99,3286.54,3034.03,3363.48,600.20,597.66,14.79,0000 0000 0000 0000 000000
2016-01-06 04:46:04,0.05,0.57,0.00,19.85,23.32,27.16,14.62,51.02,1008.29,2049.99,3284.91,3033.74,3362.49,600.12,597.65,14.84,0000 0000 0000 0000 000000
2016-01-06 04:51:05,0.05,0.58,0.00,19.87,23.31,27.15,14.60,51.06,1008.28,2049.99,3283.45,3033.05,3361.51,600.10,597.42,14.89,0000 0000 0000 0000 000000
2016-01-06 04:56:07,0.03,0.58,0.00,19.86,23.30,27.11,14.62,50.86,1008.31,2049.99,3281.89,3032.98,3360.75,600.06,597.62,14.94,0000 0000 0000 0000 000000
2016-01-06 05:01:08,0.05,0.58,0.00,19.86,23.29,27.14,14.64,51.09,1008.31,2049.99,3280.49,3032.63,3359.83,600.03,597.53,14.99,0000 0000 0000 0000 000000
2016-01-06 05:06:09,0.04,0.58,0.00,19.86,23.29,27.14,14.63,51.10,1008.31,2049.99,3278.91,3032.03,3358.82,600.04,597.54,15.04,0000 0000 0000 0000 000000
2016-01-06 05:11:11,0.05,0.59,0.00,19.86,23.28,27.13,14.59,51.17,1008.35,2049.99,3277.42,3031.79,3357.83,599.92,597.50,15.09,0000 0000 0000 0000 000000
2016-01-06 05:16:12,0.06,0.59,0.00,19.87,23.27,27.12,14.69,51.20,1008.54,2049.99,3275.77,3031.04,3356.73,599.91,597.56,15.14,0000 0000 0000 0000 000000
2016-01-06 05:21:14,0.04,0.59,0.00,19.85,23.27,27.15,14.56,51.20,1008.64,2049.99,3274.37,3030.83,3355.81,599.87,597.58,15.19,0000 0000 0000 0000 000000
2016-01-06 05:26:15,0.06,0.60,0.00,19.85,23.27,27.13,14.58,51.14,1008.72,2050.00,3272.78,3030.08,3354.89,599.89,597.60,15.24,0000 0000 0000 0000 000000
2016-01-06 05:31:16,0.05,0.60,0.00,19.86,23.25,27.13,14.60,51.26,1008.74,2050.01,3271.07,3029.86,3353.79,599.84,597.77,15.29,0000 0000 0000 0000 000000
2016-01-06 05:36:17,0.06,0.60,0.00,19.86,23.24,27.09,14.68,51.30,1008.72,2050.01,3269.38,3029.07,3352.73,600.17,597.83,15.34,0000 0000 0000 0000 000000
2016-01-06 05:41:19,0.06,0.60,0.00,19.86,23.24,27.11,14.67,51.13,1008.80,2050.01,3267.70,3028.52,3351.66,600.20,598.04,15.39,0000 0000 0000 0000 000000
2016-01-06 05:46:20,0.05,0.61,0.00,19.85,23.23,27.12,14.63,51.26,1008.80,2050.01,3266.06,3027.98,3350.55,600.01,597.83,15.44,0000 0000 0000 0000 000000
2016-01-06 05:51:21,0.06,0.61,0.00,19.86,23.22,27.07,14.61,51.13,1008.80,2050.02,3264.45,3027.22,3349.45,600.15,597.90,15.49,0000 0000 0000 0000 000000
2016-01-06 05:56:22,0.04,0.61,0.00,19.86,23.22,27.10,14.71,51.32,1008.81,2050.03,3263.11,3026.95,3348.55,600.09,597.98,15.54,0000 0000 0000 0000 000000
2016-01-06 06:01:24,0.06,0.62,0.00,19.87,23.22,27.12,14.66,51.13,1008.86,2050.02,3261.58,3026.18,3347.48,599.92,597.70,15.59,0000 0000 0000 0000 000000
2016-01-06 06:06:25,0.05,0.62,0.00,19.85,23.21,27.08,14.66,51.23,1009.17,2050.03,3259.94,3025.82,3346.41,600.09,598.11,15.64,0000 0000 0000 0000 000000
2016-01-06 06:11:26,0.06,0.62,0.00,19.85,23.20,27.09,14.65,51.21,1009.29,2050.03,3258.31,3025.01,3345.24,600.03,598.13,15.69,0000 0000 0000 0000 000000
2016-01-06 06:16:27,0.07,0.63,0.00,19.84,23.19,27.06,14.62,51.23,1009.29,2050.03,3256.64,3024.24,3344.08,600.49,598.51,15.74,0000 0000 0000 0000 000000
2016-01-06 06:21:29,0.03,0.63,0.00,19.82,23.19,27.04,14.63,51.08,1009.29,2050.04,3255.17,3023.98,3343.07,600.20,598.38,15.79,0000 0000 0000 0000 000000
2016-01-06 06:26:30,0.06,0.63,0.00,19.82,23.17,27.06,14.57,51.03,1009.33,2050.04,3253.78,3023.39,3342.17,599.69,597.88,15.84,0000 0000 0000 0000 000000
2016-01-06 06:31:31,0.04,0.63,0.00,19.81,23.17,27.08,14.62,51.20,1009.46,2050.05,3252.54,3023.02,3341.35,600.11,598.27,15.89,0000 0000 0000 0000 000000
2016-01-06 06:36:33,0.03,0.63,0.00,19.81,23.15,27.08,14.65,51.16,1009.57,2050.13,3251.29,3022.97,3340.73,599.90,598.25,15.94,0000 0000 0000 0000 000000
2016-01-06 06:41:34,0.06,0.64,0.00,19.81,23.14,27.04,14.67,51.08,1009.59,2050.20,3249.90,3022.32,3339.87,599.93,598.30,15.99,0000 0000 0000 0000 000000
2016-01-06 06:46:36,0.04,0.64,0.00,19.81,23.14,27.10,14.63,50.92,1009.69,2050.24,3248.48,3022.00,3338.96,599.90,598.46,16.04,0000 0000 0000 0000 000000
2016-01-06 06:51:37,0.06,0.64,0.00,19.82,23.14,27.03,14.68,51.13,1009.70,2050.16,3246.93,3021.37,3338.03,600.04,598.55,16.09,0000 0000 0000 0000 000000
2016-01-06 06:56:38,0.03,0.65,0.00,19.81,23.14,27.04,14.64,51.07,1009.78,2050.12,3245.59,3021.00,3337.11,599.99,598.37,16.15,0000 0000 0000 0000 000000
2016-01-06 07:01:40,0.05,0.65,0.00,19.79,23.13,27.03,14.63,51.14,1009.78,2050.13,3244.30,3020.57,3336.33,599.87,598.37,16.20,0000 0000 0000 0000 000000
2016-01-06 07:06:41,0.26,0.66,0.00,19.80,23.12,27.08,14.65,51.07,1009.78,2050.10,3239.98,3017.76,3332.93,600.05,598.52,16.25,0000 0000 0000 0000 000000
2016-01-06 07:11:43,0.43,0.67,0.00,19.80,23.12,27.04,14.69,50.99,1009.80,2050.13,3232.34,3012.43,3326.87,600.16,598.58,16.30,0000 0000 0000 0000 000000
2016-01-06 07:16:44,0.40,0.70,0.00,19.82,23.12,27.02,14.56,51.02,1009.91,2050.07,3222.73,3005.71,3319.29,599.77,598.14,16.35,0000 0000 0000 0000 000000
2016-01-06 07:21:45,0.06,0.71,0.00,19.83,23.12,27.03,14.61,51.11,1010.19,2050.08,3219.53,3004.01,3316.97,599.72,598.35,16.40,0000 0000 0000 0000 000000
2016-01-06 07:26:46,0.07,0.71,0.00,19.83,23.12,27.06,14.56,51.02,1010.27,2050.08,3217.81,3003.27,3315.94,599.83,598.56,16.45,0000 0000 0000 0000 000000
2016-01-06 07:31:48,0.03,0.71,0.00,19.83,23.12,27.03,14.78,51.10,1010.27,2050.04,3216.27,3002.94,3314.95,600.25,599.06,16.50,0000 0000 0000 0000 000000
2016-01-06 07:36:49,0.08,0.72,0.00,19.82,23.12,27.07,14.59,51.13,1010.30,2050.12,3214.75,3002.14,3313.96,600.09,598.86,16.55,0000 0000 0000 0000 000000
2016-01-06 07:41:50,0.03,0.72,0.00,19.82,23.12,26.99,14.61,51.22,1010.51,2050.11,3213.23,3001.81,3312.95,600.11,598.93,16.60,0000 0000 0000 0000 000000
2016-01-06 07:46:52,0.05,0.72,0.00,19.81,23.12,26.99,14.72,51.27,1010.73,2050.03,3211.68,3001.04,3311.98,600.04,599.06,16.65,0000 0000 0000 0000 000000
2016-01-06 07:51:53,0.05,0.72,0.00,19.80,23.12,27.02,14.70,51.13,1010.76,2050.02,3210.21,3000.69,3311.00,600.35,599.30,16.70,0000 0000 0000 0000 000000
2016-01-06 07:56:55,0.05,0.73,0.00,19.82,23.12,27.02,14.61,51.17,1010.76,2050.05,3208.74,3000.04,3310.06,600.08,599.01,16.75,0000 0000 0000 0000 000000
2016-01-06 08:01:56,0.04,0.73,0.00,19.82,23.12,27.01,14.75,51.23,1010.76,2050.03,3207.30,2999.74,3309.12,600.47,599.46,16.80,0000 0000 0000 0000 000000
2016-01-06 08:06:57,0.06,0.73,0.00,19.82,23.12,27.05,14.66,51.19,1010.76,2050.03,3205.80,2999.04,3308.18,600.05,599.06,16.85,0000 0000 0000 0000 000000
2016-01-06 08:11:58,0.03,0.73,0.00,19.81,23.12,27.04,14.70,51.21,1010.76,2050.01,3204.45,2998.89,3307.43,600.10,599.22,16.90,0000 0000 0000 0000 000000
2016-01-06 08:16:59,0.06,0.74,0.00,19.80,23.12,27.03,14.63,51.25,1010.76,2050.05,3203.04,2998.15,3306.63,600.22,599.35,16.95,0000 0000 0000 0000 000000
2016-01-06 08:22:01,0.03,0.74,0.00,19.79,23.12,27.01,14.67,51.35,1010.77,2050.05,3201.61,2997.99,3305.89,599.96,599.17,17.00,0000 0000 0000 0000 000000
2016-01-06 08:27:02,0.05,0.74,0.00,19.80,23.12,27.00,14.65,51.27,1010.77,2050.07,3200.14,2997.52,3305.01,600.38,599.47,17.05,0000 0000 0000 0000 000000
2016-01-06 08:32:04,0.04,0.74,0.00,19.81,23.12,27.03,14.65,51.39,1010.78,2050.05,3198.73,2997.02,3304.10,600.03,599.09,17.10,0000 0000 0000 0000 000000
2016-01-06 08:37:05,0.06,0.75,0.00,19.80,23.12,27.02,14.63,51.28,1010.80,2050.06,3197.23,2996.51,3303.16,600.07,599.19,17.15,0000 0000 0000 0000 000000
2016-01-06 08:42:06,0.05,0.75,0.00,19.81,23.12,27.03,14.69,51.40,1010.96,2050.07,3195.75,2995.99,3302.15,599.88,599.09,17.20,0000 0000 0000 0000 000000
2016-01-06 08:47:07,0.05,0.75,0.00,19.81,23.12,27.01,14.59,51.31,1011.12,2050.07,3194.31,2995.29,3301.26,599.83,599.12,17.25,0000 0000 0000 0000 000000
2016-01-06 08:52:08,0.04,0.75,0.00,19.82,23.12,27.03,14.74,51.29,1011.21,2050.08,3192.85,2994.99,3300.32,600.40,599.65,17.30,0000 0000 0000 0000 000000
2016-01-06 08:57:10,0.05,0.76,0.00,19.81,23.12,27.02,14.68,51.17,1011.24,2050.04,3191.45,2994.37,3299.49,600.10,599.48,17.35,0000 0000 0000 0000 000000
2016-01-06 09:02:11,0.03,0.76,0.00,19.79,23.12,27.06,14.73,51.19,1011.25,2050.04,3190.06,2994.00,3298.69,600.20,599.53,17.40,0000 0000 0000 0000 000000
2016-01-06 09:07:12,0.06,0.76,0.00,19.79,23.12,27.02,14.68,51.34,1011.25,2050.02,3188.66,2993.51,3297.81,600.07,599.43,17.45,0000 0000 0000 0000 000000
2016-01-06 09:12:14,0.03,0.76,0.00,19.77,23.12,27.01,14.73,51.18,1011.25,2050.02,3187.43,2993.03,3297.02,600.22,599.56,17.50,0000 0000 0000 0000 000000
2016-01-06 09:17:15,0.04,0.77,0.00,19.75,23.12,27.01,14.68,51.22,1011.25,2050.02,3186.02,2992.91,3296.19,600.13,599.73,17.55,0000 0000 0000 0000 000000
2016-01-06 09:22:16,0.06,0.77,0.00,19.77,23.11,27.00,14.73,51.26,1011.25,2050.03,3184.68,2992.14,3295.61,600.04,599.64,17.60,0000 0000 0000 0000 000000
2016-01-06 09:27:17,0.03,0.77,0.00,19.75,23.11,27.00,14.69,51.21,1011.25,2050.08,3183.46,2992.00,3294.75,600.19,599.69,17.65,0000 0000 0000 0000 000000
2016-01-06 09:32:19,0.05,0.77,0.00,19.75,23.10,26.97,14.62,51.42,1011.25,2050.12,3182.03,2991.57,3293.90,600.00,599.51,17.70,0000 0000 0000 0000 000000
2016-01-06 09:37:20,0.04,0.78,0.00,19.73,23.10,27.01,14.61,51.31,1011.29,2050.09,3180.63,2991.01,3293.06,600.09,599.61,17.75,0000 0000 0000 0000 000000
2016-01-06 09:42:21,0.08,0.78,0.00,19.74,23.10,26.96,14.68,51.48,1011.27,2050.32,3179.33,2990.62,3292.27,600.16,599.69,17.80,0000 0000 0000 0000 000000
2016-01-06 09:47:23,0.03,0.78,0.00,19.76,23.09,26.97,14.72,51.55,1011.26,2050.28,3177.90,2990.02,3291.53,600.20,599.72,17.85,0000 0000 0000 0000 000000
2016-01-06 09:52:25,0.07,0.78,0.00,19.72,23.09,26.98,14.62,51.45,1011.25,2050.38,3176.64,2989.64,3290.62,599.62,599.19,17.90,0000 0000 0000 0000 000000
2016-01-06 09:57:25,0.03,0.79,0.00,19.74,23.09,26.97,14.74,51.42,1011.26,2050.25,3175.30,2989.02,3289.74,600.15,599.68,17.95,0000 0000 0000 0000 000000
2016-01-06 10:02:27,0.06,0.79,0.00,19.71,23.09,26.97,14.77,51.64,1011.27,2050.23,3173.87,2988.44,3288.82,600.37,599.78,18.00,0000 0000 0000 0000 000000
2016-01-06 10:07:28,0.04,0.79,0.00,19.70,23.09,26.96,14.70,51.68,1011.26,2050.32,3172.62,2987.95,3288.01,600.07,599.63,18.05,0000 0000 0000 0000 000000
2016-01-06 10:12:30,0.05,0.80,0.00,19.70,23.07,26.91,14.77,51.63,1011.27,2050.25,3171.32,2987.16,3287.25,600.32,599.86,18.10,0000 0000 0000 0000 000000
2016-01-06 10:17:31,0.03,0.80,0.00,19.69,23.07,26.98,14.67,51.48,1011.34,2050.20,3170.01,2986.88,3286.27,600.11,599.74,18.15,0000 0000 0000 0000 000000
2016-01-06 10:22:32,0.09,0.80,0.00,19.68,23.07,26.98,14.70,51.67,1011.29,2050.39,3168.82,2986.17,3285.58,600.30,599.94,18.20,0000 0000 0000 0000 000000
2016-01-06 10:27:34,0.03,0.80,0.00,19.67,23.07,26.93,14.72,51.64,1011.47,2050.63,3167.61,2986.00,3284.91,600.06,599.77,18.25,0000 0000 0000 0000 000000
2016-01-06 10:32:35,0.07,0.81,0.00,19.67,23.05,26.96,14.59,51.75,1011.48,2050.81,3166.29,2985.54,3284.07,599.85,599.69,18.30,0000 0000 0000 0000 000000
2016-01-06 10:37:36,0.03,0.81,0.00,19.65,23.04,27.00,14.86,51.60,1011.59,2050.79,3165.02,2985.00,3283.21,600.11,599.91,18.35,0000 0000 0000 0000 000000
2016-01-06 10:42:37,0.07,0.81,0.00,19.64,23.04,26.94,14.69,51.70,1011.51,2050.86,3163.69,2984.50,3282.29,600.14,599.96,18.40,0000 0000 0000 0000 000000
2016-01-06 10:47:39,0.04,0.82,0.00,19.63,23.03,26.92,14.72,51.77,1011.48,2050.96,3162.49,2984.03,3281.63,600.04,599.93,18.45,0000 0000 0000 0000 000000
2016-01-06 10:52:40,0.07,0.82,0.00,19.61,23.02,26.98,14.65,51.80,1011.62,2050.97,3160.97,2983.39,3280.49,599.82,599.79,18.50,0000 0000 0000 0000 000000
2016-01-06 10:57:41,0.03,0.82,0.00,19.60,23.02,26.93,14.64,51.82,1011.72,2050.98,3159.64,2983.00,3279.67,599.79,599.77,18.55,0000 0000 0000 0000 000000
2016-01-06 11:02:43,0.05,0.82,0.00,19.58,23.01,26.91,14.68,51.80,1011.73,2050.98,3158.34,2982.48,3278.82,599.99,600.08,18.60,0000 0000 0000 0000 000000
2016-01-06 11:07:44,0.04,0.83,0.00,19.59,23.00,26.88,14.77,51.52,1011.73,2050.98,3157.06,2981.92,3277.87,600.22,600.31,18.65,0000 0000 0000 0000 000000
2016-01-06 11:12:45,0.06,0.83,0.00,19.58,22.99,26.89,14.77,51.54,1011.74,2050.99,3155.55,2981.10,3276.96,600.22,600.31,18.70,0000 0000 0000 0000 000000
2016-01-06 11:17:47,0.03,0.83,0.00,19.58,22.99,26.90,14.66,51.64,1011.80,2050.99,3154.42,2980.98,3276.11,600.05,600.13,18.75,0000 0000 0000 0000 000000
2016-01-06 11:22:48,0.04,0.83,0.00,19.56,22.98,26.85,14.75,51.52,1011.95,2050.99,3153.23,2980.60,3275.32,600.03,600.31,18.80,0000 0000 0000 0000 000000
2016-01-06 11:27:49,0.03,0.84,0.00,19.54,22.97,26.84,14.67,51.62,1012.06,2050.99,3152.12,2980.03,3274.83,599.89,600.25,18.85,0000 0000 0000 0000 000000
2016-01-06 11:32:51,0.03,0.84,0.00,19.53,22.97,26.86,14.75,51.74,1012.03,2050.99,3150.92,2979.95,3274.03,600.02,600.49,18.90,0000 0000 0000 0000 000000
2016-01-06 11:37:52,0.06,0.84,0.00,19.52,22.95,26.81,14.74,51.73,1011.95,2050.99,3149.71,2979.14,3273.13,600.16,600.51,18.95,0000 0000 0000 0000 000000
2016-01-06 11:42:53,0.03,0.84,0.00,19.52,22.94,26.83,14.68,51.69,1011.99,2050.99,3148.49,2978.99,3272.30,599.98,600.36,19.00,0000 0000 0000 0000 000000
2016-01-06 11:47:55,0.05,0.84,0.00,19.52,22.94,26.87,14.70,51.86,1012.15,2050.99,3147.32,2978.45,3271.65,599.81,600.29,19.05,0000 0000 0000 0000 000000
2016-01-06 11:52:56,0.02,0.85,0.00,19.50,22.92,26.89,14.66,51.75,1012.22,2050.99,3146.13,2978.02,3271.02,599.83,600.47,19.10,0000 0000 0000 0000 000000
2016-01-06 11:57:57,0.06,0.85,0.00,19.48,22.92,26.82,14.75,51.71,1012.21,2051.00,3144.80,2977.73,3270.35,599.81,600.42,19.15,0000 0000 0000 0000 000000
2016-01-06 12:02:58,0.04,0.85,0.00,19.48,22.91,26.82,14.71,51.88,1012.20,2051.00,3143.65,2977.07,3269.63,600.16,600.74,19.20,0000 0000 0000 0000 000000
2016-01-06 12:08:00,0.02,0.85,0.00,19.46,22.90,26.81,14.75,51.93,1012.21,2051.01,3142.47,2976.97,3268.95,600.17,600.80,19.25,0000 0000 0000 0000 000000
2016-01-06 12:13:01,0.06,0.86,0.00,19.44,22.89,26.78,14.75,51.91,1012.22,2051.01,3141.26,2976.25,3268.08,599.90,600.74,19.30,0000 0000 0000 0000 000000
2016-01-06 12:18:02,0.04,0.86,0.00,19.43,22.88,26.79,14.74,51.92,1012.22,2051.04,3139.99,2975.98,3267.20,600.12,600.83,19.35,0000 0000 0000 0000 000000
2016-01-06 12:23:03,0.06,0.86,0.00,19.43,22.87,26.76,14.70,51.88,1012.27,2051.02,3138.79,2975.21,3266.39,599.97,600.70,19.40,0000 0000 0000 0000 000000
2016-01-06 12:28:05,0.03,0.86,0.00,19.42,22.87,26.70,14.81,51.82,1012.27,2051.03,3137.60,2974.93,3265.58,600.22,601.10,19.45,0000 0000 0000 0000 000000
2016-01-06 12:33:06,0.05,0.87,0.00,19.41,22.85,26.74,14.77,51.81,1012.33,2051.05,3136.44,2974.19,3264.80,600.32,601.13,19.50,0000 0000 0000 0000 000000
2016-01-06 12:38:08,0.04,0.87,0.00,19.41,22.84,26.68,14.76,51.86,1012.54,2051.04,3135.16,2973.83,3263.90,599.85,600.79,19.55,0000 0000 0000 0000 000000
2016-01-06 12:43:09,0.05,0.87,0.00,19.40,22.83,26.72,14.79,51.88,1012.66,2051.06,3134.05,2973.07,3263.06,600.20,601.25,19.60,0000 0000 0000 0000 000000
2016-01-06 12:48:10,0.04,0.87,0.00,19.40,22.82,26.73,14.78,51.75,1012.71,2051.12,3132.91,2973.00,3262.32,600.07,601.04,19.65,0000 0000 0000 0000 000000
2016-01-06 12:53:12,0.03,0.87,0.00,19.39,22.81,26.72,14.75,51.86,1012.82,2051.11,3131.84,2972.72,3261.82,599.97,601.13,19.70,0000 0000 0000 0000 000000
2016-01-06 12:58:13,0.05,0.88,0.00,19.40,22.79,26.69,14.63,51.85,1012.94,2051.29,3130.79,2972.10,3261.07,599.77,601.09,19.75,0000 0000 0000 0000 000000